Content
SEND FEEDBACK

Daily
Averages
Monthly
Summary
United States of America

CEDAR BLUFFS, NEBRASKA


Home > North America > United States > Nebraska
Elevation: 362 meters     Latitude: 41 26N     Longitude: 096 29W

WEATHER
 
SELECT A DAY
Number of Records: 441,967;   Date Range: 11/7/95 - 11/25/14
 
SHARE

PRINT THIS DATA

[ ← Previous Day ]
WEATHER ALMANAC - 19 JANUARY, 2013
[ Next Day → ]
[ °F ]   °C
Weather ElementAverageHighLow
Temperature3.2 °C12 °C (2:15 pm)-6.1 °C (11:55 pm)
Dewpoint-2.2 °C1.1 °C (11:15 am)-10.5 °C (11:35 pm)
Humidity70.6 %99 % (3:35 am)43 % (2:35 pm)
Barometer1017.6 hPa1028.1 hPa (11:55 pm)1010.8 hPa (3:55 am)
Wind Speed16.9 km/h37 km/h (11:55 am)
Wind Gust48.1 km/h (8:15 pm)
Weather ElementAverage
Visibility16.1 km
Wind DirectionWSW (238.8 °)

Weather ElementTotal
Precipitation---
Heating Degree Days15.4 (Base 18.3)
Averaged from 60 records on 19 January, 2013
WEATHER CONDITIONS BREAKOUT
WIND DIRECTION BREAKOUT
WEATHER BY HOUR - 19 JANUARY, 2013
[ °F ]   °C
Local TimeTemperatureDewpointHumidityBarometerVisibilityWind DirectionWind SpeedGust SpeedPrecipitationEventsConditions
12:35 AM0.1 °C-1.2 °C91 %1011.5 hPa16.1 kmCalmClear
12:55 AM-1.3 °C-1.6 °C98 %1011.2 hPa16.1 kmCalmClear
1:15 AM-0.7 °C-1.1 °C97 %1011.2 hPa16.1 kmCalmClear
1:35 AM0 °C-0.8 °C94 %1011.5 hPa16.1 kmCalmClear
1:55 AM-0.3 °C-0.7 °C97 %1011.2 hPa16.1 kmCalmClear
2:15 AM0 °C-0.9 °C94 %1011.2 hPa16.1 kmCalmClear
2:35 AM-0.6 °C-1.2 °C96 %1011.2 hPa16.1 kmCalmClear
2:55 AM-1.4 °C-2.5 °C92 %1011.2 hPa16.1 kmCalmClear
3:15 AM-1.6 °C-1.9 °C98 %1011.2 hPa16.1 kmCalmClear
3:35 AM-2.8 °C-3 °C99 %1011.2 hPa16.1 kmCalmClear
3:55 AM-2.4 °C-2.5 °C99 %1010.8 hPa16.1 kmCalmClear
4:15 AM-2.2 °C-2.6 °C97 %1011.2 hPa16.1 kmCalmClear
4:35 AM-1.7 °C-2.1 °C97 %1010.8 hPa16.1 kmCalmClear
4:55 AM-1.5 °C-2 °C96 %1010.8 hPa16.1 kmCalmClear
5:15 AM-1.7 °C-2.1 °C97 %1011.2 hPa16.1 kmCalmClear
5:35 AM-1.5 °C-2 °C96 %1011.2 hPa16.1 kmNorth (350°)5.6 km/hClear
7:15 AM0.6 °C-1 °C89 %1012.5 hPa16.1 kmNW (320°)18.5 km/hClear
7:55 AM1.2 °C-0.8 °C87 %1013.2 hPa16.1 kmWest (270°)14.8 km/hClear
8:15 AM1.6 °C-1.2 °C82 %1013.2 hPa16.1 kmWest (270°)20.4 km/hClear
9:55 AM6.1 °C-1.1 °C60 %1015.2 hPa16.1 kmWest (270°)22.2 km/hClear
10:15 AM7 °C-0.9 °C57 %1015.2 hPa16.1 kmWest (270°)25.9 km/hClear
10:35 AM7.3 °C-0.3 °C59 %1015.6 hPa16.1 kmWest (280°)24.1 km/hClear
11:15 AM8.5 °C1.1 °C60 %1015.6 hPa16.1 kmWest (280°)20.4 km/hClear
11:35 AM10.1 °C0.7 °C52 %1015.6 hPa16.1 kmWNW (290°)27.8 km/hClear
11:55 AM10.5 °C-0.7 °C46 %1015.9 hPa16.1 kmWNW (300°)37 km/h42.6 km/hClear
12:15 PM10.6 °C-0.8 °C45 %1015.9 hPa16.1 kmWNW (290°)37 km/h42.6 km/hClear
12:35 PM11 °C-0.6 °C45 %1016.3 hPa16.1 kmWNW (300°)35.2 km/h42.6 km/hClear
12:55 PM11 °C-0.5 °C45 %1016.3 hPa16.1 kmNW (310°)35.2 km/h42.6 km/hClear
1:15 PM10.9 °C-0.1 °C47 %1015.9 hPa16.1 kmNW (310°)27.8 km/h40.7 km/hClear
1:55 PM11.7 °C-0.1 °C44 %1016.3 hPa16.1 kmNW (310°)33.3 km/h38.9 km/hClear
2:15 PM12 °C0.1 °C44 %1016.3 hPa16.1 kmNW (310°)20.4 km/hClear
2:35 PM12 °C-0.3 °C43 %1016.6 hPa16.1 kmWNW (300°)25.9 km/h31.5 km/hClear
2:55 PM11.8 °C0.1 °C45 %1016.9 hPa16.1 kmNW (310°)24.1 km/h42.6 km/hClear
3:15 PM11.5 °C0 °C45 %1017.6 hPa16.1 kmNW (320°)24.1 km/h44.4 km/hClear
3:35 PM11.2 °C0.1 °C47 %1017.9 hPa16.1 kmNNW (330°)27.8 km/h40.7 km/hClear
3:55 PM10.6 °C0.4 °C50 %1018.6 hPa16.1 kmNW (320°)29.6 km/h35.2 km/hClear
4:15 PM10 °C0.2 °C51 %1019 hPa16.1 kmNNW (330°)14.8 km/h29.6 km/hClear
4:35 PM9.1 °C0.5 °C55 %1019.3 hPa16.1 kmNNW (330°)16.7 km/hClear
4:55 PM8.5 °C0.5 °C57 %1019.6 hPa16.1 kmNNW (330°)16.7 km/hClear
5:15 PM7.3 °C0.5 °C62 %1020 hPa16.1 kmNNW (330°)11.1 km/hClear
5:35 PM6.2 °C0.1 °C65 %1020.3 hPa16.1 kmNNW (340°)13 km/hClear
5:55 PM6.3 °C-0.7 °C61 %1021 hPa16.1 kmNNW (330°)24.1 km/h33.3 km/hClear
6:15 PM5.1 °C-1.2 °C64 %1021.3 hPa16.1 kmNNW (330°)18.5 km/hClear
6:35 PM4.7 °C-1 °C67 %1021.3 hPa16.1 kmNNW (330°)16.7 km/hClear
6:55 PM3.9 °C-1.1 °C70 %1021.7 hPa16.1 kmNNW (340°)14.8 km/hClear
7:15 PM4.2 °C-0.6 °C71 %1022.4 hPa16.1 kmNNW (330°)27.8 km/h37 km/hClear
7:35 PM2.8 °C-0.1 °C81 %1023 hPa16.1 kmNorth (350°)22.2 km/h38.9 km/hClear
7:55 PM1.5 °C-1.1 °C83 %1024 hPa16.1 kmNNW (340°)22.2 km/h33.3 km/hClear
8:15 PM0.9 °C-4.1 °C70 %1024.4 hPa16.1 kmNNW (340°)27.8 km/h48.1 km/hClear
8:35 PM0.2 °C-5.3 °C67 %1024.7 hPa16.1 kmNNW (330°)29.6 km/h42.6 km/hClear
8:55 PM0 °C-6.2 °C63 %1025.1 hPa16.1 kmNNW (330°)33.3 km/h46.3 km/hClear
9:15 PM-0.7 °C-7.8 °C59 %1025.1 hPa16.1 kmNW (320°)29.6 km/h42.6 km/hClear
9:35 PM-2 °C-8.2 °C63 %1025.4 hPa16.1 kmNNW (330°)20.4 km/hClear
9:55 PM-2.4 °C-7 °C71 %1025.7 hPa16.1 kmNorth (350°)24.1 km/h33.3 km/hClear
10:15 PM-3.5 °C-7.7 °C73 %1026.4 hPa16.1 kmNNW (340°)20.4 km/h38.9 km/hClear
10:35 PM-4.1 °C-8.6 °C71 %1026.8 hPa16.1 kmNNW (340°)16.7 km/h31.5 km/hClear
10:55 PM-4.8 °C-10.1 °C67 %1027.1 hPa16.1 kmNNW (330°)22.2 km/h31.5 km/hClear
11:15 PM-5.1 °C-9.1 °C74 %1027.4 hPa16.1 kmNNW (340°)9.3 km/hClear
11:35 PM-5.6 °C-10.5 °C69 %1027.8 hPa16.1 kmNNW (340°)13 km/hClear
11:55 PM-6.1 °C-10.4 °C72 %1028.1 hPa16.1 kmNW (320°)13 km/hClear
Hourly data recorded from KFET, located 0 kilometers away from Cedar Bluffs, Nebraska







STORIES FROM OUR PARTNERS